Showing default

EMISAT, 44078

Orbit data source: Space-Track

EMISAT, 44078 is a payload satellite owned by ISRO (IN) in SSO that was launched on Mon, 01 Apr 2019 UTC via a PSLV-QL launch vehicle from the Sirharikota (SRI). Payload-class satellites include a variety of spacecraft equipped with specific instruments for various scientific and technological missions. These include communications satellites like Starlink; space stations such as the ISS; scientific satellites like the Hubble; Earth observation satellites from companies like Planet Labs, Umbra, and HawkEye 360; GPS; miniature CubeSats for education and research; and military/defense satellites.

Loading next visibility...
Identifier
44078, 2019-018A
Orbit
SSO
Last TLE update
6 hours ago
Origin
Manufacturer
ISRO
Mission
Operational Defense Sigint
Bus & Motor
SSB-2, AOCS
Mass
436 kg wet, ~380 kg dry
Launch date (UTC)
2019-04-01 (6 years ago)
Launch vehicle
PSLV-QL
Launch site
Sirharikota (SRI)
Object type
Payload
Rocket body
Debris
Shape & HBR
Box + 2 Pan, 6 m
Radar Cross Section
4.485 m², Large (>1 m²)

Expand to show TLE details & history

TLE from 6 hours ago
0 EMISAT
1 44078U 19018A   25182.16732061  .00000166  00000-0  61292-4 0  9993
2 44078  98.2858 238.5860 0017999 191.8598 168.2172 14.43731249329406
Epoch: 2025-07-01T04:00Z
TLE epoch observation values (Epoch: 2025-07-01T04:00:56.5Z)
Latitude
0.00002°
Longitude
-101.11608°
Altitude
761.714 km
Speed
7.467 km/s
True Right ascension
15h 54m 20s
True Declination
0° 00' 00"
Sunlit
Object was in full shadow at epoch
Visualization orbit readout
Latitude
-76.34611°
Longitude
42.5291°
Altitude
768.857 km
Speed
7.471 km/s
Apparent Right ascension
08h 32m 54s
Apparent Declination
-69° 17' 55"
Sunlit
Object is in daylight
Visualization observer readout
Local Sidereal Time
21:50:28
Azimuth
166.879° S
Elevation
-58.869°
Doppler factor
1
Orbital elements
Apogee altitude
756.122 km
Perigee altitude
730.486 km
Semi-major axis
7,121.441 km
Eccentricity
0.0018
Inclination
98.2858°
RAAN
238.586°
Arg. of periapsis
191.8598°
True anomaly
Unknown
Mean anomaly
168.2172°
Eccentric anomaly
Unknown
Mean motion
3.61153 °/min
Orbital period
99.68 mins
BSTAR
0.000061292
Loading maneuver chart data...
Loading SW <> Apogee altitude chart data...

EMISAT Visibility forecast

Observer location: undefined°, undefined°

Span
Click to sort rows by Start time (UTC) header in descending order
Start Az.
Max El. time (UTC)
Max El. Az.
Max El.
End time (UTC)
End Az.
9 mins2025-07-01 16:14:03.833Z25.438° NE2025-07-01 16:18:03.833Z80.352° E36.283°2025-07-01 16:23:03.833Z173.897° S
5 mins2025-07-01 17:55:03.833Z321.206° NNW2025-07-01 17:57:03.833Z290.995° WNW17.736°2025-07-01 18:00:03.833Z252.865° W
8 mins2025-07-02 03:26:03.833Z147.244° SSE2025-07-02 03:30:03.833Z49.381° ENE39.768°2025-07-02 03:34:03.833Z356.211° N
4 mins2025-07-02 05:07:03.833Z248.358° W2025-07-02 05:09:03.833Z275.259° WNW14.515°2025-07-02 05:11:03.833Z299.929° NW
|